WFOV (USA 332)

Last updated on Wed Sep 17 2025 00:02:51 GMT+0000 (Coordinated Universal Time)

1 52940U 22073A 25259.60635891 -.00000381 00000+0 00000+0 0 9996 2 52940 3.0032 82.0718 0001431 46.8385 204.4600 1.00272988 11622
UTC large
Height (km)
Speed (km/s)
/
Latitude / Longitude
Inclination (degrees)
Orbital Period (minutes)
Azimuth
Elevation
Range (km)
Doppler Factor

Next 0 passes for location: London (51.5072 / 0.1276)

Sorry there are no passes over London.